[[{"header":{"parameterUnit":"m.s-1","parameterCategory":1,"la1":30.2991,"la2":30.254,"lo1":-89.0895,"lo2":-89.0444,"dy":0.0017,"dx":0.0017,"nx":28,"ny":28,"refTime":"2025-01-03T03:00:00:Z","depth":0,"parameterNumber":2,"parameterNumberName":"U-component_of_WINDS"},"data":[0,0,0,0,0,0,0,0,0,0,0,0,0,0,0,0,0,0,0,0,0,0,0,0,0,0,0,0,0,0,0,0,0,0,0,0,0,0,0,0,0,0,0,0,0,0,0,0,0,0,0,0,0,0,0,0,0,0,-1.2458,-1.2458,0,-1.2429,-1.2429,-1.2429,-1.2339,-1.2337,-1.2335,-1.2334,-1.2308,-1.2309,-1.231,0,0,0,0,0,0,0,0,0,0,0,0,0,-1.2439,-1.244,-1.2458,-1.2458,-1.2457,-1.2429,-1.2429,-1.2429,-1.234,-1.2337,-1.2335,-1.2333,-1.2308,-1.2309,-1.231,0,0,0,0,0,0,0,0,0,0,0,0,0,-1.2433,-1.244,-1.2458,-1.2409,-1.2405,-1.2429,-1.2429,-1.2428,-1.234,-1.2337,-1.2334,-1.2331,-1.2307,-1.2309,-1.2311,-1.2381,0,0,-1.2316,-1.2317,0,0,0,0,0,0,0,0,-1.2433,-1.2433,-1.2417,-1.2413,-1.2408,-1.2385,-1.2413,-1.2413,-1.2341,-1.2365,-1.2333,-1.233,-1.2336,-1.2335,-1.2337,-1.238,-1.2379,-1.2316,-1.2317,-1.2318,-1.2319,0,0,0,0,0,0,0,-1.2434,-1.2434,-1.2447,-1.2417,-1.2411,-1.239,-1.2386,-1.2412,-1.2368,-1.2363,-1.2356,-1.2354,-1.2333,-1.2335,-1.2335,-1.2379,-1.2316,-1.2318,-1.2319,-1.232,-1.2478,-1.2481,0,0,0,0,0,0,-1.244,-1.2435,-1.2448,-1.2446,-1.2413,-1.2393,-1.2388,-1.2395,-1.2367,-1.236,-1.2356,-1.235,-1.2334,-1.2334,-1.2334,-1.2415,-1.2318,-1.232,-1.2321,-1.2475,-1.2479,-1.2482,0,0,0,0,0,0,-1.244,-1.2442,-1.2449,-1.2439,-1.2438,-1.2396,-1.2405,-1.2396,-1.2398,-1.2362,-1.2354,-1.2366,-1.2331,-1.2332,-1.237,-1.2413,-1.232,-1.2322,-1.2471,-1.2476,-1.248,-1.2577,0,0,0,0,0,0,-1.244,-1.2443,-1.2469,-1.244,-1.2439,-1.2484,-1.2408,-1.2398,-1.2401,-1.2392,-1.237,-1.2363,-1.2329,-1.2368,-1.2372,-1.2414,-1.2323,-1.2467,-1.2473,-1.2479,-1.257,-1.2585,-1.2597,0,0,0,0,0,-1.244,-1.2498,-1.2471,-1.2473,-1.247,-1.2487,-1.2486,-1.2445,-1.2405,-1.2431,-1.2408,-1.2364,-1.2407,-1.2372,-1.2376,-1.2419,-1.2464,-1.2471,-1.2478,-1.2564,-1.2582,-1.2597,0,0,0,0,0,0,-1.2535,-1.2494,-1.2462,-1.2513,-1.2504,-1.2472,-1.2504,-1.2465,-1.2469,-1.246,-1.2409,-1.2405,-1.2451,-1.2438,-1.24,-1.2486,-1.2428,-1.2437,-1.2492,-1.2509,-1.2522,-1.2525,-1.2325,0,0,0,0,0,-1.2562,-1.2578,-1.2541,-1.2589,-1.2586,-1.2546,-1.2552,-1.252,-1.2509,-1.2506,-1.2485,-1.2478,-1.2489,-1.2498,-1.2507,-1.2567,-1.2562,-1.2599,-1.2613,-1.2624,-1.2632,-1.2663,-1.268,-1.2505,-1.2505,-1.2505,0,0,-1.2617,-1.2597,-1.261,-1.2608,-1.2597,-1.2616,-1.2543,-1.2567,-1.258,-1.251,-1.2544,-1.2529,-1.2517,-1.2566,-1.2587,-1.2558,-1.2679,-1.2633,-1.2642,-1.2644,-1.2672,-1.2689,-1.2704,-1.251,-1.2509,-1.2508,0,0,-1.2729,-1.2714,-1.2752,-1.2743,-1.2727,-1.2699,-1.2709,-1.2682,-1.2669,-1.2702,-1.2649,-1.2666,-1.2687,-1.268,-1.268,-1.2787,-1.2748,-1.2792,-1.2864,-1.2894,-1.2908,-1.292,-1.2959,-1.2974,-1.28,-1.28,-1.28,0,-1.28,-1.2826,-1.2778,-1.2804,-1.2805,-1.2739,-1.2778,-1.2772,-1.2761,-1.2763,-1.2729,-1.2754,-1.2742,-1.2789,-1.2815,-1.2816,-1.2826,-1.2795,-1.291,-1.2921,-1.2932,-1.2969,-1.2983,-1.2805,-1.2805,-1.2804,-1.2804,0,-1.2915,-1.2933,-1.2966,-1.2955,-1.2959,-1.2992,-1.295,-1.296,-1.2928,-1.2905,-1.294,-1.2922,-1.2926,-1.2934,-1.2904,-1.2977,-1.2959,-1.2919,-1.286,-1.2955,-1.2988,-1.3002,-1.2813,-1.2811,-1.281,-1.2808,0,0,-1.3087,-1.3048,-1.3061,-1.3055,-1.3032,-1.3046,-1.3076,-1.3078,-1.3088,-1.3082,-1.3106,-1.3125,-1.3087,-1.3087,-1.3054,-1.3082,-1.3168,-1.3037,-1.3036,-1.3063,-1.3249,-1.3281,-1.3298,-1.3141,-1.3143,-1.3145,-1.325,0,-1.3193,-1.3241,-1.3198,-1.3254,-1.3271,-1.3209,-1.3234,-1.3224,-1.3202,-1.3214,-1.319,-1.3205,-1.3153,-1.3152,-1.3176,-1.3153,-1.3205,-1.3144,-1.3165,-1.3166,-1.3171,-1.3315,-1.3349,-1.3448,-1.3263,-1.3265,-1.3267,0,-1.3324,-1.3322,-1.338,-1.3352,-1.3358,-1.3382,-1.338,-1.3392,-1.3379,-1.3361,-1.336,-1.332,-1.3348,-1.329,-1.3328,-1.3288,-1.3293,-1.3283,-1.3286,-1.3287,-1.3223,-1.3321,-1.3479,-1.3495,-1.3287,-1.3285,-1.3284,0,-1.3445,-1.3457,-1.3493,-1.349,-1.3458,-1.3477,-1.3465,-1.3448,-1.3452,-1.3451,-1.3453,-1.3456,-1.3458,-1.3461,-1.3424,-1.3384,-1.3467,-1.3405,-1.3454,-1.3456,-1.3476,-1.3475,-1.3638,-1.3478,-1.3477,-1.3477,-1.3477,0,-1.3569,-1.3607,-1.3547,-1.3569,-1.361,-1.356,-1.3602,-1.3584,-1.357,-1.3588,-1.3534,-1.3553,-1.3501,-1.3514,-1.3485,-1.3521,-1.3522,-1.351,-1.3502,-1.3515,-1.3517,-1.3519,-1.3512,-1.3481,-1.348,-1.3479,-1.3479,0,-1.3712,-1.3673,-1.3708,-1.3675,-1.3667,-1.3699,-1.3671,-1.3691,-1.3664,-1.3688,-1.3691,-1.3651,-1.3664,-1.3626,-1.3633,-1.3613,-1.3667,-1.3647,-1.3671,-1.3666,-1.3717,-1.3713,-1.3887,-1.3908,-1.3734,-1.3736,-1.3737,0,-1.3794,-1.3821,-1.379,-1.3798,-1.3789,-1.3802,-1.3805,-1.3757,-1.3763,-1.3749,-1.3771,-1.3778,-1.3782,-1.3806,-1.3778,-1.3783,-1.3764,-1.3825,-1.3765,-1.3777,-1.3766,-1.3765,-1.3768,-1.3838,-1.384,-1.3842,-1.3843,0,-1.3944,-1.3923,-1.3929,-1.3929,-1.3934,-1.3931,-1.3925,-1.3935,-1.3883,-1.3892,-1.3904,-1.3907,-1.3913,-1.3922,-1.3921,-1.3909,-1.3869,-1.3862,-1.3873,-1.3888,-1.3902,-1.3896,-1.3706,-1.3859,-1.3857,-1.3856,-1.3855,-1.3854,-1.406,-1.4081,-1.4063,-1.4071,-1.4061,-1.4056,-1.4073,-1.4048,-1.4056,-1.4057,-1.4028,-1.4046,-1.4031,-1.4025,-1.4018,-1.4031,-1.4003,-1.402,-1.4025,-1.403,-1.4039,-1.3898,-1.4031,-1.403,-1.403,-1.4029,-1.4029,0,-1.4208,-1.4192,-1.42,-1.4193,-1.42,-1.4158,-1.4149,-1.4158,-1.4173,-1.4162,-1.4167,-1.418,-1.4188,-1.416,-1.4164,-1.4181,-1.4162,-1.4184,-1.4183,-1.4181,-1.4063,-1.4053,-1.4199,-1.4199,-1.4199,-1.4199,-1.4199,-1.4199,-1.4286,-1.432,-1.4297,-1.4325,-1.4309,-1.4325,-1.4324,-1.4319,-1.431,-1.4327,-1.4333,-1.4314,-1.4296,-1.4298,-1.4304,-1.4296,-1.43,-1.4329,-1.4314,-1.4205,-1.4189,-1.4173,-1.4163,-1.433,-1.433,-1.443,-1.4431,-1.4432]},{"header":{"parameterUnit":"m.s-1","parameterCategory":1,"la1":30.2991,"la2":30.254,"lo1":-89.0895,"lo2":-89.0444,"dy":0.0017,"dx":0.0017,"nx":28,"ny":28,"refTime":"2025-01-03T03:00:00:Z","depth":0,"parameterNumber":3,"parameterNumberName":"V-component_of_WINDS"},"data":[0,0,0,0,0,0,0,0,0,0,0,0,0,0,0,0,0,0,0,0,0,0,0,0,0,0,0,0,0,0,0,0,0,0,0,0,0,0,0,0,0,0,0,0,0,0,0,0,0,0,0,0,0,0,0,0,0,0,-4.1229,-4.123,0,-4.131,-4.1311,-4.1312,-4.1241,-4.1238,-4.1235,-4.1233,-4.1313,-4.1317,-4.1322,0,0,0,0,0,0,0,0,0,0,0,0,0,-4.1012,-4.1016,-4.1229,-4.123,-4.1231,-4.131,-4.1311,-4.1312,-4.1242,-4.1238,-4.1235,-4.1231,-4.1311,-4.1317,-4.1323,0,0,0,0,0,0,0,0,0,0,0,0,0,-4.1101,-4.1018,-4.1229,-4.1206,-4.1204,-4.131,-4.1311,-4.1312,-4.1242,-4.1238,-4.1234,-4.123,-4.1309,-4.1316,-4.1323,-4.1455,0,0,-4.1345,-4.1349,0,0,0,0,0,0,0,0,-4.1096,-4.1109,-4.1208,-4.1208,-4.1206,-4.1261,-4.1264,-4.136,-4.1244,-4.1228,-4.1233,-4.1228,-4.1299,-4.1307,-4.1331,-4.1459,-4.1462,-4.1346,-4.1351,-4.1354,-4.1356,0,0,0,0,0,0,0,-4.109,-4.1105,-4.1261,-4.121,-4.1209,-4.119,-4.1198,-4.1282,-4.1287,-4.1229,-4.1224,-4.1235,-4.1297,-4.1324,-4.1333,-4.1463,-4.1346,-4.1352,-4.1357,-4.136,-4.1704,-4.1708,0,0,0,0,0,0,-4.1086,-4.11,-4.1258,-4.1263,-4.1139,-4.1198,-4.1207,-4.1248,-4.1286,-4.1287,-4.1238,-4.1231,-4.1314,-4.1324,-4.1335,-4.1492,-4.1354,-4.136,-4.1365,-4.1699,-4.1705,-4.171,0,0,0,0,0,0,-4.1082,-4.1101,-4.1255,-4.1181,-4.1199,-4.1206,-4.1253,-4.1252,-4.1279,-4.1293,-4.1293,-4.1265,-4.1311,-4.1325,-4.1426,-4.1494,-4.1364,-4.137,-4.1693,-4.1701,-4.1707,-4.1808,0,0,0,0,0,0,-4.1076,-4.11,-4.1151,-4.1182,-4.1203,-4.1346,-4.1257,-4.1256,-4.1292,-4.1283,-4.1318,-4.132,-4.1309,-4.1416,-4.1433,-4.1502,-4.1376,-4.1687,-4.1696,-4.1705,-4.1798,-4.1818,-4.1834,0,0,0,0,0,-4.1069,-4.1175,-4.1154,-4.1173,-4.1267,-4.135,-4.1362,-4.1348,-4.1297,-4.1348,-4.1357,-4.1318,-4.1484,-4.1427,-4.1446,-4.1518,-4.1683,-4.1694,-4.1704,-4.179,-4.1814,-4.1834,0,0,0,0,0,0,-4.115,-4.1179,-4.1155,-4.1275,-4.1311,-4.1338,-4.1401,-4.1373,-4.1423,-4.1413,-4.1393,-4.1401,-4.1508,-4.1523,-4.1458,-4.1647,-4.1575,-4.159,-4.1634,-4.1656,-4.1674,-4.1668,-4.1382,0,0,0,0,0,-4.1182,-4.1248,-4.1269,-4.1373,-4.1392,-4.1394,-4.1429,-4.1416,-4.1452,-4.1466,-4.1482,-4.1518,-4.1578,-4.1618,-4.1674,-4.18,-4.1807,-4.1859,-4.1877,-4.1891,-4.1905,-4.1973,-4.1997,-4.1745,-4.1745,-4.1745,0,0,-4.1248,-4.1272,-4.1315,-4.139,-4.1416,-4.1484,-4.1407,-4.1482,-4.1532,-4.1477,-4.1574,-4.1588,-4.1626,-4.1741,-4.1792,-4.1756,-4.1976,-4.1905,-4.1916,-4.1922,-4.1987,-4.2011,-4.2032,-4.1753,-4.1751,-4.175,0,0,-4.1404,-4.1429,-4.1519,-4.1547,-4.1588,-4.1588,-4.161,-4.1642,-4.1649,-4.1746,-4.1707,-4.1766,-4.1869,-4.1899,-4.1927,-4.2096,-4.2062,-4.2114,-4.2207,-4.2274,-4.2294,-4.2311,-4.2372,-4.2394,-4.2127,-4.2128,-4.2128,0,-4.1481,-4.1583,-4.1568,-4.1647,-4.1681,-4.1635,-4.1726,-4.1753,-4.181,-4.1835,-4.1794,-4.1924,-4.1946,-4.2068,-4.2109,-4.2133,-4.2157,-4.211,-4.2292,-4.231,-4.2326,-4.2384,-4.2406,-4.2134,-4.2133,-4.2133,-4.2132,0,-4.1676,-4.1748,-4.1815,-4.1873,-4.1915,-4.1999,-4.1996,-4.204,-4.2023,-4.2028,-4.2128,-4.2153,-4.2214,-4.2242,-4.2225,-4.2361,-4.2338,-4.2295,-4.2222,-4.2356,-4.241,-4.2432,-4.2143,-4.214,-4.2139,-4.2137,0,0,-4.1885,-4.1934,-4.1959,-4.1985,-4.2028,-4.2082,-4.2165,-4.2225,-4.2264,-4.2304,-4.2373,-4.2462,-4.2423,-4.2456,-4.2442,-4.2501,-4.2634,-4.2451,-4.2452,-4.2485,-4.2786,-4.2818,-4.2844,-4.2612,-4.2616,-4.262,-4.2783,0,-4.2043,-4.2188,-4.2177,-4.2313,-4.2379,-4.2337,-4.2408,-4.2442,-4.2449,-4.2506,-4.2513,-4.2577,-4.2521,-4.254,-4.2597,-4.2606,-4.2694,-4.2594,-4.2675,-4.2678,-4.2668,-4.2872,-4.2906,-4.3059,-4.2804,-4.2807,-4.281,0,-4.2247,-4.2297,-4.244,-4.2474,-4.2501,-4.2566,-4.2621,-4.2675,-4.2713,-4.2714,-4.2751,-4.2728,-4.281,-4.2735,-4.2849,-4.2781,-4.2813,-4.2823,-4.2829,-4.2836,-4.2753,-4.2885,-4.3107,-4.3131,-4.2843,-4.284,-4.2838,0,-4.2386,-4.2488,-4.2587,-4.2611,-4.2652,-4.2699,-4.2718,-4.2751,-4.2789,-4.2837,-4.2861,-4.2917,-4.2948,-4.2992,-4.2985,-4.2931,-4.3101,-4.3025,-4.3104,-4.3104,-4.3141,-4.3139,-4.3372,-4.3162,-4.3162,-4.3161,-4.3161,0,-4.2564,-4.2653,-4.2651,-4.2712,-4.281,-4.2797,-4.2895,-4.2908,-4.2938,-4.3001,-4.2968,-4.3027,-4.3013,-4.3072,-4.3067,-4.3162,-4.3176,-4.3179,-4.3176,-4.3182,-4.3182,-4.3203,-4.3192,-4.3167,-4.3166,-4.3165,-4.3164,0,-4.2735,-4.2737,-4.2843,-4.2874,-4.2884,-4.2955,-4.2982,-4.3039,-4.3044,-4.3124,-4.3141,-4.3149,-4.3216,-4.3214,-4.3289,-4.3286,-4.3403,-4.3388,-4.3391,-4.3388,-4.3467,-4.346,-4.3722,-4.3756,-4.3524,-4.3526,-4.3528,0,-4.2849,-4.2917,-4.2956,-4.2996,-4.3019,-4.3084,-4.3123,-4.3112,-4.3153,-4.3202,-4.3253,-4.3318,-4.3369,-4.3479,-4.3491,-4.3549,-4.3535,-4.3623,-4.3544,-4.3548,-4.3537,-4.3533,-4.354,-4.3639,-4.3642,-4.3644,-4.3645,0,-4.305,-4.3048,-4.3106,-4.3165,-4.3212,-4.3257,-4.3299,-4.3333,-4.3327,-4.3375,-4.3445,-4.3485,-4.3563,-4.3628,-4.3684,-4.3703,-4.3674,-4.3671,-4.3692,-4.3698,-4.3698,-4.37,-4.3434,-4.3664,-4.3663,-4.3661,-4.366,-4.3659,-4.3197,-4.3256,-4.3293,-4.3358,-4.3389,-4.3429,-4.3485,-4.3497,-4.3555,-4.362,-4.3609,-4.3687,-4.3723,-4.3796,-4.382,-4.388,-4.3849,-4.3879,-4.3887,-4.3895,-4.3904,-4.3688,-4.389,-4.389,-4.3889,-4.3889,-4.3888,0,-4.3397,-4.3419,-4.348,-4.354,-4.3592,-4.3561,-4.3605,-4.365,-4.372,-4.3756,-4.3808,-4.3888,-4.3951,-4.3968,-4.4029,-4.4074,-4.4062,-4.409,-4.4087,-4.4092,-4.3929,-4.3905,-4.4099,-4.4099,-4.4099,-4.4099,-4.4099,-4.4099,-4.3507,-4.3606,-4.3608,-4.3722,-4.3743,-4.382,-4.3848,-4.3885,-4.3914,-4.4006,-4.4059,-4.407,-4.4099,-4.4161,-4.4218,-4.4221,-4.4245,-4.4279,-4.4277,-4.4124,-4.4103,-4.4083,-4.406,-4.4284,-4.4284,-4.4435,-4.4436,-4.4437]}]]